Regional Weather Roundup
Issued by NWS

Home | Current Version | Previous Version | Graphics & Text | Print | Product List | Glossary On
Versions: 1 2 3 4 5 6 7 8 9 10 11 12 13 14 15 16 17 18 19 20 21 22 23 24 25 26 27 28 29 30 31 32 33 34 35 36 37 38 39 40 41 42 43 44 45 46 47 48 49 50
000
ASUS43 KMKX 180500
RWRWI

WISCONSIN REGIONAL WEATHER ROUNDUP
NATIONAL WEATHER SERVICE MILWAUKEE/SULLIVAN WI
1200 AM CDT SAT APR 18 2015

NOTE: "FAIR" INDICATES FEW OR NO CLOUDS BELOW 12,000 FEET WITH NO
SIGNIFICANT WEATHER AND/OR OBSTRUCTIONS TO VISIBILITY.

WIZ001-002-006>008-014>016-023>028-180600-
NORTHWEST WISCONSIN

CITY           SKY/WX    TMP DP  RH WIND       PRES   REMARKS
SUPERIOR ARPT  CLEAR     57  30  35 CALM      30.05R
ASHLAND        CLEAR     49  26  41 N9        30.06R
HAYWARD        PTCLDY    43  32  65 CALM      30.04R
SIREN          CLEAR     44  30  57 CALM      30.03F
CUMBERLAND     CLEAR     45  32  61 CALM      30.03S
RICE LAKE      CLEAR     44  41  88 CALM      30.04S
CHETEK         CLEAR     46  39  77 CALM      30.03S
LADYSMITH      CLEAR     50  33  51 N3        30.04S
EAU CLAIRE     CLEAR     50  33  52 E3        30.02S
MENOMONIE      CLEAR     54  38  55 CALM      30.03S
NEW RICHMOND   CLEAR     48  37  67 CALM      30.04S
OSCEOLA        CLEAR     47  37  69 CALM      30.06S
$$

WIZ003>005-009-010-017-018-180600-
NORTH CENTRAL WISCONSIN

CITY           SKY/WX    TMP DP  RH WIND       PRES   REMARKS
MANITOWISH WTR PTCLDY    39  36  89 CALM      30.03R
ARBOR VITAE    PTCLDY    44  32  62 CALM      30.03R
WOODRUFF       PTCLDY    44  32  62 CALM      30.03R
RHINELANDER    PTCLDY    54  27  35 NW5       30.03R
EAGLE RIVER    FAIR      41  32  70 CALM      30.01S
LAND O LAKES   CLEAR     36  34  94 CALM      30.03R
PHILLIPS       CLEAR     52  27  38 CALM      30.03R
TOMAHAWK       PTCLDY    41  33  73 CALM      30.03S
MEDFORD        CLEAR     52  33  47 NW3       30.02S
MERRILL        CLEAR     48  37  65 W5        30.02R
$$

WIZ029-030-035-036-043>047-180600-
CENTRAL WISCONSIN

CITY           SKY/WX    TMP DP  RH WIND       PRES   REMARKS
WAUSAU         CLEAR     57  41  55 NW6       30.00R
MOSINEE        CLEAR     55  36  47 W5        30.02S
MARSHFIELD     PTCLDY    54  39  57 N8        30.02S
STEVENS POINT  CLEAR     48  40  74 CALM      30.01S
WAUPACA        CLEAR     54  44  69 CALM      30.00S
WAUTOMA        NOT AVBL
WISC RAPIDS    CLEAR     51  39  63 N3        30.02S
CAMP DOUGLAS   NOT AVBL
$$

WIZ011>013-019>022-031-037>040-048>050-180600-
NORTHEAST WISCONSIN

CITY           SKY/WX    TMP DP  RH WIND       PRES   REMARKS
ANTIGO         CLEAR     55  38  52 NW7       30.02R
SHAWANO        CLEAR     56  43  63 CALM      29.99R
OCONTO         FAIR      43  41  92 CALM      29.98R
STURGEON BAY   CLEAR     46  37  71 N10G20    30.01R
GREEN BAY      CLEAR     55  44  66 SW3       29.98S
MANITOWOC      NOT AVBL
APPLETON       CLEAR     55  41  58 CALM      30.00R
CLINTONVILLE   CLEAR     52  43  71 CALM      29.99S
OSHKOSH        PTCLDY    58  44  60 SW7       29.99S
$$

WIZ032>034-041-042-053>061-180600-
SOUTHWEST WISCONSIN

CITY           SKY/WX    TMP DP  RH WIND       PRES   REMARKS
LA CROSSE      PTCLDY    59  50  72 CALM      30.01S
SPARTA         PTCLDY    48  40  74 CALM      30.03R
VIROQUA        PTCLDY    62  41  46 CALM      30.03R
BOSCOBEL       CLEAR     52  45  77 CALM      30.01S
PRAIRIE DU CHI CLEAR     56  45  66 CALM      30.01S
PLATTEVILLE    CLEAR     65  45  47 CALM      30.01S
$$

WIZ056-057-062-063-064-067-068-180600-
SOUTH CENTRAL WISCONSIN

CITY           SKY/WX    TMP DP  RH WIND       PRES   REMARKS
REEDSBURG      PTCLDY    55  45  68 CALM      30.00S
BARABOO/DELLS  PTCLDY    56  41  58 CALM      30.00S
LONE ROCK      NOT AVBL
MINERAL POINT  CLEAR     63  43  48 CALM      30.02S
MADISON        PTCLDY    55  46  71 CALM      30.00S
MIDDLETON      PTCLDY    54  46  75 CALM      30.01S
WATERTOWN      MOCLDY    51  46  82 CALM      30.00S
MONROE         CLEAR     68  45  42 W7        30.01R
JANESVILLE     PTCLDY    55  43  62 CALM      29.99S
$$

WIZ051-052-058>065-066-070>072-180600-
SOUTHEAST WISCONSIN

CITY           SKY/WX    TMP DP  RH WIND       PRES   REMARKS
MILWAUKEE      PTCLDY    53  41  63 CALM      30.00F
WAUKESHA       MOCLDY    54  41  62 CALM      30.01S
MILWAUKEE/TIMM PTCLDY    54  37  54 CALM      30.00F
RACINE         PTCLDY    52  41  66 W3        30.01S
BURLINGTON     MOCLDY    49  43  82 CALM      29.99F
KENOSHA        PTCLDY    50  43  77 CALM      30.00S HAZE
FOND DU LAC    PTCLDY    56  43  61 SW3       30.00S
SHEBOYGAN      PTCLDY    48  40  73 CALM      29.99S
WEST BEND      PTCLDY    54  37  54 CALM      30.00S
JUNEAU         MOCLDY    56  42  59 CALM      30.01F
$$

LSZ147-162-180600-
LAKE SUPERIOR

STATION/POSITION TIME  TEMP    WIND        PRES    WAVE
                       AIR SEA DIR/SP/G            HT/PER
                 (UTC) (F)     (DEG/KT/KT) (MB)    (FT/S)
DEVILS ISLAND    0400   54     360/ 24/ 26 1017.2R
PORT WING        0440   49      30/ 10/ 13 1017.9R
SAXON HARBOR     0420   53     290/  6/ 11 1016.6R
$$

LMZ867-665-643>646-180600-
LAKE MICHIGAN

STATION/POSITION TIME  TEMP    WIND        PRES    WAVE
                       AIR SEA DIR/SP/G            HT/PER
                 (UTC) (F)     (DEG/KT/KT) (MB)    (FT/S)
CHAMBERS ISLAND  0400   40     340/ 10/ 17 1015.9R
NORTHPORT PIER   0400   42     310/  7/ 15 1015.9R
SISTER BAY       0332   47     150/  5/  8   N/A
KEWAUNEE LAKESHO 0412   48      CALM  /  1 1014.2F
SHEBOYGAN LAKESH 0400   55     220/  6/  7 1016.0F
PORT WASHINGTON  0400   48     240/  1/  3 1016.6S
MILWAUKEE LAKESH 0400   42      40/  4/  6   N/A
KENOSHA   LAKESH 0400   49     190/  2/  2 1015.9F
$$

TC  - TEMPERATURE IN CELSIUS
VSB - VISIBILITY IN STATUTE MILES
WCI - WIND CHILL INDEX
HX  - HEAT INDEX




USA.gov is the U.S. government's official web portal to all federal, state and local government web resources and services.